Time,TemperatureF,DewpointF,PressureIn,WindDirection,WindDirectionDegrees,WindSpeedMPH,WindSpeedGustMPH,Humidity,HourlyPrecipIn,Conditions,Clouds,dailyrainin,SoftwareType,DateUTC
2013-02-04 00:01:00,41.9,38.8,30.18,SE,135,0.0,0.0,89,0.00,,,0.00,WUHU216HW,2013-02-04 08:01:00,
2013-02-04 00:06:00,41.9,38.8,30.17,SE,135,0.0,0.0,89,0.00,,,0.00,WUHU216HW,2013-02-04 08:06:00,
2013-02-04 00:11:00,41.9,38.8,30.17,SSE,158,0.0,0.0,89,0.00,,,0.00,WUHU216HW,2013-02-04 08:11:00,
2013-02-04 00:16:00,41.9,38.8,30.17,SSE,158,0.0,0.0,89,0.00,,,0.00,WUHU216HW,2013-02-04 08:16:00,
2013-02-04 00:21:00,41.9,38.8,30.17,NE,45,0.0,0.0,89,0.00,,,0.00,WUHU216HW,2013-02-04 08:21:00,
2013-02-04 00:26:00,41.9,38.8,30.16,NE,45,0.0,0.0,89,0.00,,,0.00,WUHU216HW,2013-02-04 08:26:00,
2013-02-04 00:31:00,41.9,38.8,30.16,NE,45,0.0,0.0,89,0.00,,,0.00,WUHU216HW,2013-02-04 08:31:00,
2013-02-04 00:36:00,41.7,38.7,30.17,NE,45,0.0,0.0,89,0.00,,,0.00,WUHU216HW,2013-02-04 08:36:00,
2013-02-04 00:41:00,41.7,38.7,30.17,NE,45,0.0,0.0,89,0.00,,,0.00,WUHU216HW,2013-02-04 08:41:00,
2013-02-04 00:46:00,41.7,38.7,30.16,NE,45,0.0,0.0,89,0.00,,,0.00,WUHU216HW,2013-02-04 08:46:00,
2013-02-04 00:51:00,41.7,38.7,30.16,NE,45,0.0,0.0,89,0.00,,,0.00,WUHU216HW,2013-02-04 08:51:00,
2013-02-04 00:56:00,41.7,38.7,30.16,NE,45,0.0,0.0,89,0.00,,,0.00,WUHU216HW,2013-02-04 08:56:00,
2013-02-04 01:01:00,41.7,38.7,30.16,NE,45,0.0,0.0,89,0.00,,,0.00,WUHU216HW,2013-02-04 09:01:00,
2013-02-04 01:06:00,41.7,38.7,30.16,NE,45,0.0,0.0,89,0.00,,,0.00,WUHU216HW,2013-02-04 09:06:00,
2013-02-04 01:11:00,41.7,38.7,30.16,NE,45,0.0,0.0,89,0.00,,,0.00,WUHU216HW,2013-02-04 09:11:00,
2013-02-04 01:16:00,41.7,38.7,30.16,NE,45,0.0,0.0,89,0.00,,,0.00,WUHU216HW,2013-02-04 09:16:00,
2013-02-04 01:21:00,41.7,38.7,30.17,NE,45,0.0,0.0,89,0.00,,,0.00,WUHU216HW,2013-02-04 09:21:00,
2013-02-04 01:26:00,41.7,38.7,30.17,NE,45,0.0,0.0,89,0.00,,,0.00,WUHU216HW,2013-02-04 09:26:00,
2013-02-04 01:31:00,41.7,38.7,30.17,ENE,68,0.0,0.0,89,0.00,,,0.00,WUHU216HW,2013-02-04 09:31:00,
2013-02-04 01:36:00,41.7,39.0,30.18,ENE,68,0.0,0.0,90,0.00,,,0.00,WUHU216HW,2013-02-04 09:36:00,
2013-02-04 01:41:00,41.7,39.0,30.17,SE,135,0.0,0.0,90,0.00,,,0.00,WUHU216HW,2013-02-04 09:41:00,
2013-02-04 01:46:00,41.7,38.7,30.16,NE,45,0.0,0.0,89,0.00,,,0.00,WUHU216HW,2013-02-04 09:46:00,
2013-02-04 01:51:00,41.7,39.0,30.17,NE,45,0.0,0.0,90,0.00,,,0.00,WUHU216HW,2013-02-04 09:51:00,
2013-02-04 01:56:00,41.7,39.0,30.17,NE,45,0.0,0.0,90,0.00,,,0.00,WUHU216HW,2013-02-04 09:56:00,
2013-02-04 02:01:00,41.7,38.7,30.17,NE,45,0.0,0.0,89,0.00,,,0.00,WUHU216HW,2013-02-04 10:01:00,
2013-02-04 02:06:00,41.7,38.7,30.17,NE,45,0.0,0.0,89,0.00,,,0.00,WUHU216HW,2013-02-04 10:06:00,
2013-02-04 02:11:00,41.5,38.5,30.17,NE,45,0.0,0.0,89,0.00,,,0.00,WUHU216HW,2013-02-04 10:11:00,
2013-02-04 02:16:00,41.5,38.5,30.17,NE,45,0.0,0.0,89,0.00,,,0.00,WUHU216HW,2013-02-04 10:16:00,
2013-02-04 02:21:00,41.5,38.5,30.17,NE,45,0.0,0.0,89,0.00,,,0.00,WUHU216HW,2013-02-04 10:21:00,
2013-02-04 02:26:00,41.5,38.5,30.16,NE,45,0.0,0.0,89,0.00,,,0.00,WUHU216HW,2013-02-04 10:26:00,
2013-02-04 02:31:00,41.5,38.5,30.16,NE,45,0.0,0.0,89,0.00,,,0.00,WUHU216HW,2013-02-04 10:31:00,
2013-02-04 02:36:00,41.5,38.8,30.16,SSE,158,0.0,0.0,90,0.00,,,0.00,WUHU216HW,2013-02-04 10:36:00,
2013-02-04 02:41:00,41.5,38.8,30.16,SSE,158,0.0,0.0,90,0.00,,,0.00,WUHU216HW,2013-02-04 10:41:00,
2013-02-04 02:46:00,41.5,38.8,30.16,SSE,158,0.0,0.0,90,0.00,,,0.00,WUHU216HW,2013-02-04 10:46:00,
2013-02-04 02:51:00,41.5,38.8,30.16,SSE,158,0.0,0.0,90,0.00,,,0.00,WUHU216HW,2013-02-04 10:51:00,
2013-02-04 02:56:00,41.5,38.8,30.16,ENE,68,0.0,0.0,90,0.00,,,0.00,WUHU216HW,2013-02-04 10:56:00,
2013-02-04 03:01:00,41.5,38.8,30.16,ENE,68,0.0,0.0,90,0.00,,,0.00,WUHU216HW,2013-02-04 11:01:00,
2013-02-04 03:06:00,41.5,38.8,30.16,NE,45,0.0,0.0,90,0.00,,,0.00,WUHU216HW,2013-02-04 11:06:00,
2013-02-04 03:11:00,41.5,38.8,30.15,ENE,68,0.0,0.0,90,0.00,,,0.00,WUHU216HW,2013-02-04 11:11:00,
2013-02-04 03:16:00,41.5,38.8,30.15,SSE,158,0.0,0.0,90,0.00,,,0.00,WUHU216HW,2013-02-04 11:16:00,
2013-02-04 03:21:00,41.5,38.8,30.15,SSE,158,0.0,0.0,90,0.00,,,0.00,WUHU216HW,2013-02-04 11:21:00,
2013-02-04 03:26:00,41.5,38.8,30.15,SSE,158,0.0,0.0,90,0.00,,,0.00,WUHU216HW,2013-02-04 11:26:00,
2013-02-04 03:31:00,41.5,38.8,30.15,SSE,158,0.0,0.0,90,0.00,,,0.00,WUHU216HW,2013-02-04 11:31:00,
2013-02-04 03:36:00,41.5,38.8,30.15,ENE,68,0.0,0.0,90,0.00,,,0.00,WUHU216HW,2013-02-04 11:36:00,
2013-02-04 03:41:00,41.5,38.8,30.16,ENE,68,0.0,0.0,90,0.00,,,0.00,WUHU216HW,2013-02-04 11:41:00,
2013-02-04 03:46:00,41.5,38.8,30.15,ENE,68,0.0,0.0,90,0.00,,,0.00,WUHU216HW,2013-02-04 11:46:00,
2013-02-04 03:51:00,41.5,38.8,30.15,ENE,68,0.0,0.0,90,0.00,,,0.00,WUHU216HW,2013-02-04 11:51:00,
2013-02-04 03:57:00,41.5,38.8,30.15,SE,135,0.0,0.0,90,0.00,,,0.00,WUHU216HW,2013-02-04 11:57:00,
2013-02-04 04:01:00,41.5,38.8,30.15,SSE,158,0.0,0.0,90,0.00,,,0.00,WUHU216HW,2013-02-04 12:01:00,
2013-02-04 04:06:00,41.5,38.8,30.16,SW,225,0.0,0.0,90,0.00,,,0.00,WUHU216HW,2013-02-04 12:06:00,
2013-02-04 04:11:00,41.5,38.8,30.16,SW,225,0.0,0.0,90,0.00,,,0.00,WUHU216HW,2013-02-04 12:11:00,
2013-02-04 04:16:00,41.5,38.8,30.15,South,180,0.8,0.8,90,0.00,,,0.00,WUHU216HW,2013-02-04 12:16:00,
2013-02-04 04:21:00,41.5,38.8,30.15,SSE,158,0.0,0.8,90,0.00,,,0.00,WUHU216HW,2013-02-04 12:21:00,
2013-02-04 04:27:00,41.5,38.8,30.15,SSE,158,0.0,0.0,90,0.00,,,0.00,WUHU216HW,2013-02-04 12:27:00,
2013-02-04 04:32:00,41.5,38.8,30.13,East,90,0.0,0.0,90,0.00,,,0.00,WUHU216HW,2013-02-04 12:32:00,
2013-02-04 04:37:00,41.5,38.8,30.13,NE,45,0.0,0.0,90,0.00,,,0.00,WUHU216HW,2013-02-04 12:37:00,
2013-02-04 04:42:00,41.5,38.8,30.13,NE,45,0.0,1.3,90,0.00,,,0.00,WUHU216HW,2013-02-04 12:42:00,
2013-02-04 04:47:00,41.5,38.8,30.13,NE,45,0.0,1.3,90,0.00,,,0.00,WUHU216HW,2013-02-04 12:47:00,
2013-02-04 04:52:00,41.5,38.8,30.13,NE,45,0.0,0.0,90,0.00,,,0.00,WUHU216HW,2013-02-04 12:52:00,
2013-02-04 04:57:00,41.5,38.8,30.14,SSE,158,1.1,1.1,90,0.00,,,0.00,WUHU216HW,2013-02-04 12:57:00,
2013-02-04 05:02:00,41.5,38.8,30.14,South,180,0.0,1.1,90,0.00,,,0.00,WUHU216HW,2013-02-04 13:02:00,
2013-02-04 05:07:00,41.5,38.8,30.14,South,180,0.0,0.0,90,0.00,,,0.00,WUHU216HW,2013-02-04 13:07:00,
2013-02-04 05:12:00,41.5,38.8,30.14,South,180,0.0,0.0,90,0.00,,,0.00,WUHU216HW,2013-02-04 13:12:00,
2013-02-04 05:17:00,41.5,38.8,30.14,SW,225,0.0,0.0,90,0.00,,,0.00,WUHU216HW,2013-02-04 13:17:00,
2013-02-04 05:22:00,41.5,38.8,30.14,SW,225,0.0,0.0,90,0.00,,,0.00,WUHU216HW,2013-02-04 13:22:00,
2013-02-04 05:27:00,41.5,38.8,30.14,SW,225,0.0,1.5,90,0.00,,,0.00,WUHU216HW,2013-02-04 13:27:00,
2013-02-04 05:32:00,41.5,38.8,30.14,SW,225,0.0,1.5,90,0.00,,,0.00,WUHU216HW,2013-02-04 13:32:00,
2013-02-04 05:37:00,41.5,38.8,30.13,SW,225,0.0,0.0,90,0.00,,,0.00,WUHU216HW,2013-02-04 13:37:00,
2013-02-04 05:42:00,41.3,38.6,30.13,NW,315,0.0,0.0,90,0.00,,,0.00,WUHU216HW,2013-02-04 13:42:00,
2013-02-04 05:47:00,41.5,38.8,30.13,NW,315,0.0,0.0,90,0.00,,,0.00,WUHU216HW,2013-02-04 13:47:00,
2013-02-04 05:52:00,41.3,38.6,30.13,NE,45,0.0,0.0,90,0.00,,,0.00,WUHU216HW,2013-02-04 13:52:00,
2013-02-04 05:57:00,41.3,38.6,30.14,ENE,68,0.0,0.0,90,0.00,,,0.00,WUHU216HW,2013-02-04 13:57:00,
2013-02-04 06:02:00,41.3,38.6,30.13,NE,45,0.0,0.0,90,0.00,,,0.00,WUHU216HW,2013-02-04 14:02:00,
2013-02-04 06:07:00,41.3,38.6,30.14,NE,45,0.0,0.0,90,0.00,,,0.00,WUHU216HW,2013-02-04 14:07:00,
2013-02-04 06:12:00,41.3,38.6,30.13,NE,45,0.0,0.0,90,0.02,,,0.03,WUHU216HW,2013-02-04 14:12:00,
2013-02-04 06:17:00,41.3,38.6,30.13,SSE,158,0.0,0.8,90,0.02,,,0.03,WUHU216HW,2013-02-04 14:17:00,
2013-02-04 06:22:00,41.1,38.4,30.13,SSE,158,0.0,0.8,90,0.02,,,0.03,WUHU216HW,2013-02-04 14:22:00,
2013-02-04 06:27:00,41.1,38.4,30.13,East,90,0.0,0.0,90,0.02,,,0.03,WUHU216HW,2013-02-04 14:27:00,
2013-02-04 06:32:00,41.1,38.4,30.13,ENE,68,0.0,0.0,90,0.02,,,0.03,WUHU216HW,2013-02-04 14:32:00,
2013-02-04 06:37:00,41.1,38.4,30.13,NE,45,0.0,0.0,90,0.02,,,0.03,WUHU216HW,2013-02-04 14:37:00,
2013-02-04 06:42:00,41.1,38.4,30.13,NE,45,0.0,0.0,90,0.02,,,0.03,WUHU216HW,2013-02-04 14:42:00,
2013-02-04 06:47:00,41.1,38.4,30.13,NE,45,0.0,0.0,90,0.02,,,0.03,WUHU216HW,2013-02-04 14:47:00,
2013-02-04 06:52:00,41.1,38.4,30.13,SE,135,0.0,0.0,90,0.02,,,0.03,WUHU216HW,2013-02-04 14:52:00,
2013-02-04 06:57:00,41.1,38.4,30.13,SSE,158,0.0,0.0,90,0.02,,,0.03,WUHU216HW,2013-02-04 14:57:00,
2013-02-04 07:02:00,41.1,38.4,30.13,SSE,158,0.0,0.0,90,0.02,,,0.03,WUHU216HW,2013-02-04 15:02:00,
2013-02-04 07:07:00,41.1,38.4,30.13,NE,45,0.0,0.0,90,0.00,,,0.03,WUHU216HW,2013-02-04 15:07:00,
2013-02-04 07:12:00,41.1,38.4,30.12,NE,45,0.0,0.0,90,0.00,,,0.03,WUHU216HW,2013-02-04 15:12:00,
2013-02-04 07:17:00,41.1,38.4,30.13,NE,45,0.0,0.0,90,0.00,,,0.03,WUHU216HW,2013-02-04 15:17:00,
2013-02-04 07:22:00,41.1,38.4,30.13,NE,45,0.0,0.0,90,0.00,,,0.03,WUHU216HW,2013-02-04 15:22:00,
2013-02-04 07:27:00,41.1,38.4,30.13,NE,45,0.0,0.0,90,0.00,,,0.03,WUHU216HW,2013-02-04 15:27:00,
2013-02-04 07:32:00,41.1,38.4,30.13,SSE,158,0.0,0.0,90,0.00,,,0.03,WUHU216HW,2013-02-04 15:32:00,
2013-02-04 07:37:00,41.1,38.4,30.13,South,180,0.0,0.0,90,0.00,,,0.03,WUHU216HW,2013-02-04 15:37:00,
2013-02-04 07:42:00,41.1,38.4,30.13,SW,225,0.0,0.0,90,0.00,,,0.03,WUHU216HW,2013-02-04 15:42:00,
2013-02-04 07:47:00,41.1,38.4,30.13,SW,225,0.0,0.0,90,0.00,,,0.03,WUHU216HW,2013-02-04 15:47:00,
2013-02-04 07:52:00,41.1,38.4,30.13,NNE,23,0.0,0.0,90,0.00,,,0.03,WUHU216HW,2013-02-04 15:52:00,
2013-02-04 07:57:00,41.0,38.3,30.13,SE,135,0.0,0.0,90,0.00,,,0.03,WUHU216HW,2013-02-04 15:57:00,
2013-02-04 08:02:00,40.8,38.1,30.13,SE,135,0.0,0.0,90,0.00,,,0.03,WUHU216HW,2013-02-04 16:02:00,
2013-02-04 08:07:00,40.8,38.1,30.13,SE,135,0.0,0.0,90,0.00,,,0.03,WUHU216HW,2013-02-04 16:07:00,
2013-02-04 08:12:00,41.0,38.3,30.14,SE,135,0.0,0.0,90,0.00,,,0.03,WUHU216HW,2013-02-04 16:12:00,
2013-02-04 08:17:00,41.1,38.4,30.14,SE,135,0.0,0.0,90,0.00,,,0.03,WUHU216HW,2013-02-04 16:17:00,
2013-02-04 08:22:00,41.1,38.4,30.13,ESE,113,0.0,0.0,90,0.00,,,0.03,WUHU216HW,2013-02-04 16:22:00,
2013-02-04 08:27:00,41.1,38.4,30.13,WSW,248,0.0,0.0,90,0.00,,,0.03,WUHU216HW,2013-02-04 16:27:00,
2013-02-04 08:32:00,41.1,38.4,30.14,NE,45,0.0,0.0,90,0.00,,,0.03,WUHU216HW,2013-02-04 16:32:00,
2013-02-04 08:37:00,41.3,38.6,30.14,ENE,68,0.0,0.0,90,0.00,,,0.03,WUHU216HW,2013-02-04 16:37:00,
2013-02-04 08:42:00,41.3,38.6,30.14,SSE,158,0.0,0.0,90,0.00,,,0.03,WUHU216HW,2013-02-04 16:42:00,
2013-02-04 08:47:00,41.3,38.6,30.14,South,180,0.0,0.0,90,0.00,,,0.03,WUHU216HW,2013-02-04 16:47:00,
2013-02-04 08:52:00,41.5,38.8,30.14,South,180,0.0,0.0,90,0.00,,,0.03,WUHU216HW,2013-02-04 16:52:00,
2013-02-04 08:57:00,41.3,38.6,30.14,South,180,0.0,0.0,90,0.00,,,0.03,WUHU216HW,2013-02-04 16:57:00,
2013-02-04 09:02:00,41.5,38.8,30.14,WNW,293,0.0,0.0,90,0.00,,,0.03,WUHU216HW,2013-02-04 17:02:00,
2013-02-04 09:07:00,41.5,38.8,30.14,NE,45,0.0,0.0,90,0.00,,,0.03,WUHU216HW,2013-02-04 17:07:00,
2013-02-04 09:12:00,41.7,39.0,30.14,NE,45,0.0,0.0,90,0.00,,,0.03,WUHU216HW,2013-02-04 17:12:00,
2013-02-04 09:17:00,41.7,39.0,30.14,SE,135,0.0,0.0,90,0.00,,,0.03,WUHU216HW,2013-02-04 17:17:00,
2013-02-04 09:22:00,41.7,39.0,30.14,NE,45,0.0,0.0,90,0.00,,,0.03,WUHU216HW,2013-02-04 17:22:00,
2013-02-04 09:27:00,41.9,39.2,30.14,East,90,0.0,0.0,90,0.00,,,0.03,WUHU216HW,2013-02-04 17:27:00,
2013-02-04 09:32:00,41.9,39.2,30.14,NE,45,0.0,0.0,90,0.00,,,0.03,WUHU216HW,2013-02-04 17:32:00,
2013-02-04 09:37:00,42.0,39.3,30.14,NE,45,0.0,0.0,90,0.00,,,0.03,WUHU216HW,2013-02-04 17:37:00,
2013-02-04 09:42:00,42.0,39.3,30.14,NE,45,0.0,0.0,90,0.00,,,0.03,WUHU216HW,2013-02-04 17:42:00,
2013-02-04 09:47:00,42.2,39.5,30.13,NE,45,0.0,0.0,90,0.00,,,0.03,WUHU216HW,2013-02-04 17:47:00,
2013-02-04 09:52:00,42.4,39.7,30.14,NE,45,0.0,0.0,90,0.00,,,0.03,WUHU216HW,2013-02-04 17:52:00,
2013-02-04 09:57:00,42.4,39.7,30.14,SE,135,0.0,0.0,90,0.00,,,0.03,WUHU216HW,2013-02-04 17:57:00,
2013-02-04 10:02:00,42.4,39.7,30.13,ESE,113,0.0,0.0,90,0.00,,,0.03,WUHU216HW,2013-02-04 18:02:00,
2013-02-04 10:07:00,42.4,39.7,30.14,ESE,113,0.0,0.0,90,0.00,,,0.03,WUHU216HW,2013-02-04 18:07:00,
2013-02-04 10:12:00,42.6,39.9,30.14,ENE,68,0.0,0.0,90,0.00,,,0.03,WUHU216HW,2013-02-04 18:12:00,
2013-02-04 10:17:00,42.6,39.9,30.14,NE,45,0.0,0.0,90,0.00,,,0.03,WUHU216HW,2013-02-04 18:17:00,
2013-02-04 10:22:00,42.6,39.9,30.14,SE,135,0.0,0.0,90,0.00,,,0.03,WUHU216HW,2013-02-04 18:22:00,
2013-02-04 10:27:00,42.6,39.9,30.14,ESE,113,0.0,0.0,90,0.00,,,0.03,WUHU216HW,2013-02-04 18:27:00,
2013-02-04 10:32:00,42.9,40.2,30.15,ESE,113,0.0,0.0,90,0.00,,,0.03,WUHU216HW,2013-02-04 18:32:00,
2013-02-04 10:37:00,42.9,40.2,30.14,ESE,113,0.0,0.0,90,0.00,,,0.03,WUHU216HW,2013-02-04 18:37:00,
2013-02-04 10:42:00,43.1,40.4,30.14,ESE,113,0.0,0.0,90,0.00,,,0.03,WUHU216HW,2013-02-04 18:42:00,
2013-02-04 10:47:00,43.1,40.4,30.15,ESE,113,0.0,0.0,90,0.00,,,0.03,WUHU216HW,2013-02-04 18:47:00,
2013-02-04 10:52:00,43.3,40.6,30.15,NE,45,0.0,0.0,90,0.00,,,0.03,WUHU216HW,2013-02-04 18:52:00,
2013-02-04 10:57:00,43.5,40.5,30.14,NE,45,0.0,0.0,89,0.00,,,0.03,WUHU216HW,2013-02-04 18:57:00,
2013-02-04 11:02:00,43.5,40.5,30.14,SSE,158,0.0,0.0,89,0.00,,,0.03,WUHU216HW,2013-02-04 19:02:00,
2013-02-04 11:07:00,43.5,40.5,30.14,SSE,158,0.0,0.0,89,0.00,,,0.03,WUHU216HW,2013-02-04 19:07:00,
2013-02-04 11:12:00,43.8,41.1,30.14,East,90,0.0,0.0,90,0.00,,,0.03,WUHU216HW,2013-02-04 19:12:00,
2013-02-04 11:17:00,43.8,41.1,30.14,East,90,0.0,0.0,90,0.00,,,0.03,WUHU216HW,2013-02-04 19:17:00,
2013-02-04 11:22:00,44.2,41.5,30.13,NE,45,0.0,0.0,90,0.00,,,0.03,WUHU216HW,2013-02-04 19:22:00,
2013-02-04 11:27:00,44.2,41.5,30.13,NNE,23,0.0,0.0,90,0.00,,,0.03,WUHU216HW,2013-02-04 19:27:00,
2013-02-04 11:32:00,44.4,41.7,30.13,NE,45,0.0,1.1,90,0.00,,,0.03,WUHU216HW,2013-02-04 19:32:00,
2013-02-04 11:37:00,44.4,41.7,30.13,SSE,158,0.0,1.1,90,0.00,,,0.03,WUHU216HW,2013-02-04 19:37:00,
2013-02-04 11:42:00,44.4,41.7,30.13,South,180,0.0,0.0,90,0.00,,,0.03,WUHU216HW,2013-02-04 19:42:00,
2013-02-04 11:47:00,44.7,42.0,30.13,SW,225,0.0,0.0,90,0.00,,,0.03,WUHU216HW,2013-02-04 19:47:00,
2013-02-04 11:52:00,44.7,42.0,30.13,WSW,248,0.0,0.0,90,0.00,,,0.03,WUHU216HW,2013-02-04 19:52:00,
2013-02-04 11:57:00,44.9,41.9,30.13,SW,225,0.0,0.0,89,0.00,,,0.03,WUHU216HW,2013-02-04 19:57:00,
2013-02-04 12:02:00,45.1,42.1,30.13,WSW,248,0.0,0.0,89,0.00,,,0.03,WUHU216HW,2013-02-04 20:02:00,
2013-02-04 12:07:00,45.3,42.3,30.12,NNW,338,0.0,0.0,89,0.00,,,0.03,WUHU216HW,2013-02-04 20:07:00,
2013-02-04 12:12:00,45.5,42.4,30.12,NNW,338,0.0,0.0,89,0.00,,,0.03,WUHU216HW,2013-02-04 20:12:00,
2013-02-04 12:17:00,45.6,42.6,30.12,NE,45,0.0,0.0,89,0.00,,,0.03,WUHU216HW,2013-02-04 20:17:00,
2013-02-04 12:22:00,46.0,43.0,30.12,NE,45,0.0,0.0,89,0.00,,,0.03,WUHU216HW,2013-02-04 20:22:00,
2013-02-04 12:27:00,46.0,42.7,30.11,ESE,113,0.0,0.0,88,0.00,,,0.03,WUHU216HW,2013-02-04 20:27:00,
2013-02-04 12:32:00,46.2,42.9,30.11,ESE,113,0.0,0.0,88,0.00,,,0.03,WUHU216HW,2013-02-04 20:32:00,
2013-02-04 12:37:00,46.2,42.9,30.11,SE,135,0.0,0.0,88,0.00,,,0.03,WUHU216HW,2013-02-04 20:37:00,
2013-02-04 12:42:00,46.5,43.2,30.10,NE,45,0.0,0.0,88,0.00,,,0.03,WUHU216HW,2013-02-04 20:42:00,
2013-02-04 12:47:00,46.5,43.2,30.10,NE,45,0.0,0.0,88,0.00,,,0.03,WUHU216HW,2013-02-04 20:47:00,
2013-02-04 12:52:00,46.7,43.4,30.10,NNE,23,0.0,0.0,88,0.00,,,0.03,WUHU216HW,2013-02-04 20:52:00,
2013-02-04 12:57:00,46.9,43.3,30.10,NE,45,0.0,0.0,87,0.00,,,0.03,WUHU216HW,2013-02-04 20:57:00,
2013-02-04 13:02:00,47.1,43.7,30.10,NE,45,0.0,0.0,88,0.00,,,0.03,WUHU216HW,2013-02-04 21:02:00,
2013-02-04 13:07:00,47.6,43.9,30.09,SE,135,0.0,0.0,87,0.00,,,0.03,WUHU216HW,2013-02-04 21:07:00,
2013-02-04 13:12:00,48.0,44.3,30.09,East,90,0.0,0.0,87,0.00,,,0.03,WUHU216HW,2013-02-04 21:12:00,
2013-02-04 13:17:00,48.0,44.3,30.08,NE,45,0.0,0.0,87,0.00,,,0.03,WUHU216HW,2013-02-04 21:17:00,
2013-02-04 13:22:00,48.0,44.0,30.08,South,180,0.0,0.0,86,0.00,,,0.03,WUHU216HW,2013-02-04 21:22:00,
2013-02-04 13:27:00,48.0,44.0,30.07,East,90,0.0,0.0,86,0.00,,,0.03,WUHU216HW,2013-02-04 21:27:00,
2013-02-04 13:32:00,48.2,44.2,30.07,NE,45,0.0,0.0,86,0.00,,,0.03,WUHU216HW,2013-02-04 21:32:00,
2013-02-04 13:37:00,48.3,44.3,30.07,SSE,158,0.0,0.0,86,0.00,,,0.03,WUHU216HW,2013-02-04 21:37:00,
2013-02-04 13:42:00,48.3,44.3,30.07,East,90,0.0,0.0,86,0.00,,,0.03,WUHU216HW,2013-02-04 21:42:00,
2013-02-04 13:47:00,48.5,44.5,30.06,ENE,68,0.0,0.0,86,0.00,,,0.03,WUHU216HW,2013-02-04 21:47:00,
2013-02-04 13:52:00,48.3,44.0,30.06,ENE,68,0.0,0.0,85,0.00,,,0.03,WUHU216HW,2013-02-04 21:52:00,
2013-02-04 13:57:00,48.3,44.0,30.06,WNW,293,0.0,0.0,85,0.00,,,0.03,WUHU216HW,2013-02-04 21:57:00,
2013-02-04 14:02:00,48.2,43.8,30.05,South,180,0.0,0.0,85,0.00,,,0.03,WUHU216HW,2013-02-04 22:02:00,
2013-02-04 14:07:00,48.3,44.0,30.05,NE,45,0.0,0.0,85,0.00,,,0.03,WUHU216HW,2013-02-04 22:07:00,
2013-02-04 14:12:00,48.2,43.5,30.05,NE,45,2.9,2.9,84,0.00,,,0.03,WUHU216HW,2013-02-04 22:12:00,
2013-02-04 14:17:00,48.0,43.3,30.05,SE,135,0.0,2.9,84,0.00,,,0.03,WUHU216HW,2013-02-04 22:17:00,
2013-02-04 14:22:00,48.0,43.2,30.05,SE,135,0.0,2.9,84,0.00,,,0.03,WUHU216HW,2013-02-04 22:22:00,
2013-02-04 14:27:00,48.0,43.3,30.05,NNE,23,4.4,4.4,84,0.00,,,0.03,WUHU216HW,2013-02-04 22:27:00,
2013-02-04 14:32:00,47.8,43.2,30.05,ENE,68,0.0,4.4,84,0.00,,,0.03,WUHU216HW,2013-02-04 22:32:00,
2013-02-04 14:37:00,48.0,43.3,30.04,NE,45,1.3,4.4,84,0.00,,,0.03,WUHU216HW,2013-02-04 22:37:00,
2013-02-04 14:42:00,48.0,43.3,30.04,NNE,23,2.2,2.2,84,0.00,,,0.03,WUHU216HW,2013-02-04 22:42:00,
2013-02-04 14:47:00,48.0,43.3,30.04,NE,45,4.6,4.6,84,0.00,,,0.03,WUHU216HW,2013-02-04 22:47:00,
2013-02-04 14:52:00,48.0,43.0,30.03,ENE,68,1.7,4.6,83,0.00,,,0.03,WUHU216HW,2013-02-04 22:52:00,
2013-02-04 14:57:00,47.8,42.8,30.03,NE,35,2.2,3.5,83,0.00,,,0.03,WUHU216HW,2013-02-04 22:57:00,
2013-02-04 15:02:00,47.8,42.8,30.03,NE,45,0.0,3.1,83,0.00,,,0.03,WUHU216HW,2013-02-04 23:02:00,
2013-02-04 15:07:00,47.6,43.0,30.02,NE,50,1.7,2.6,84,0.00,,,0.03,WUHU216HW,2013-02-04 23:07:00,
2013-02-04 15:12:00,47.6,43.0,30.02,NE,45,2.0,2.6,84,0.00,,,0.03,WUHU216HW,2013-02-04 23:12:00,
2013-02-04 15:17:00,47.4,42.8,30.02,NE,45,0.0,2.0,84,0.00,,,0.03,WUHU216HW,2013-02-04 23:17:00,
2013-02-04 15:22:00,47.4,42.5,30.02,NNE,23,4.4,4.4,83,0.00,,,0.03,WUHU216HW,2013-02-04 23:22:00,
2013-02-04 15:27:00,47.4,42.5,30.02,NE,45,2.2,4.4,83,0.00,,,0.03,WUHU216HW,2013-02-04 23:27:00,
2013-02-04 15:32:00,47.4,42.5,30.02,NE,45,0.0,4.4,83,0.00,,,0.03,WUHU216HW,2013-02-04 23:32:00,
2013-02-04 15:37:00,47.4,42.5,30.01,North,0,0.8,2.4,83,0.00,,,0.03,WUHU216HW,2013-02-04 23:37:00,
2013-02-04 15:42:00,47.3,42.0,30.00,NNE,23,6.7,6.7,82,0.00,,,0.03,WUHU216HW,2013-02-04 23:42:00,
2013-02-04 15:47:00,47.3,42.0,30.00,NE,45,0.8,6.7,82,0.00,,,0.03,WUHU216HW,2013-02-04 23:47:00,
2013-02-04 15:52:00,47.1,41.9,30.00,NNE,23,2.9,6.7,82,0.00,,,0.03,WUHU216HW,2013-02-04 23:52:00,
2013-02-04 15:57:00,46.7,41.5,30.00,NNE,23,2.3,2.9,82,0.00,,,0.03,WUHU216HW,2013-02-04 23:57:00,